Location: Gauravaram
(16.6995°N, 80.5417°E)
Time: 09:58:03
(UTC+00:00)

Cosmos 2315 Rocket - Pass Details

Date: 03 August 2024
Orbit: 965 x 1002 km, 82.9° (Epoch: 19 September)

Event Time Altitude Azimuth Distance (km) Brightness Sun altitude
Rises 22:44:37 0° 176° (S) 3,711 6.8 -21.7°
Reaches altitude 10° 22:47:10 10° 172° (S) 2,764 6.2 -21.2°
Maximum altitude 22:53:26 64° 93° (E) 1,100 4.4 -19.9°
Drops below altitude 10° 22:59:42 10° 12° (NNE) 2,765 6.9 -18.5°
Sets 23:02:15 0° 10° (N) 3,712 7.5 -18.0°
